Location: Aufkirchen
(47.9603°N, 11.3653°E)
Time: 11:00:08
(UTC+02:00)

Altair - Pass Details

Date: 30 July 2021
Orbit: 1501 x 1682 km, 47.2° (Epoch: 18 September)

Event Time Altitude Azimuth Distance (km) Brightness Sun altitude
Exits shadow 02:50:39 28° 184° (S) 2,560 8.1 -20.6°
Maximum altitude 02:54:28 39° 141° (SE) 2,137 8.0 -20.3°
Drops below altitude 10° 03:02:44 10° 77° (ENE) 3,662 10.0 -19.8°
Sets 03:05:58 0° 70° (ENE) 4,639 10.7 -19.5°
